Theta_e
317 315 312 313 313 311 315 313 312 314 315 314 315 317 318 318 319 318 331 338 338 338 338 337 339 345 338 337 336 336 339 342 341 340 338 337 337 337 336 334 335 339 339 340 336 334 338 338 337
316 313 314 309 312 312 310 312 316 315 315 314 319 326 327 323 337 337 337 338 336 338 337 337 339 343 337 337 336 336 337 341 340 339 337 336 337 337 336 335 336 338 340 338 338 339 337 337 336
314 314 311 313 311 311 308 311 315 315 313 315 315 318 324 329 339 338 336 334 337 339 336 337 339 342 343 336 336 335 336 337 341 341 340 339 338 337 337 336 337 337 338 338 338 337 336 335 334
315 310 308 314 315 313 310 314 314 314 314 314 314 319 328 332 338 338 337 335 337 340 337 336 338 342 345 339 337 335 336 340 344 342 342 340 339 338 337 336 336 335 335 337 338 336 335 334 333
311 307 312 314 314 312 312 313 314 315 315 315 315 317 328 332 337 339 338 336 337 341 339 337 338 341 343 344 340 337 334 337 340 341 339 339 337 337 336 334 333 333 334 335 335 335 335 334 333
306 306 312 313 313 312 311 312 314 314 314 314 314 317 327 334 338 339 338 335 339 341 341 339 338 339 343 341 339 339 337 335 336 336 334 334 334 333 331 331 333 332 333 334 335 334 333 333 332
305 307 310 310 312 312 312 310 313 314 312 314 318 324 330 334 338 339 338 339 341 342 341 341 340 340 342 341 340 338 337 336 336 334 331 330 330 327 328 331 330 331 333 334 334 333 332 332 331
304 306 309 308 312 312 312 314 313 314 314 314 324 326 326 330 339 339 339 340 342 342 341 341 342 345 340 341 340 339 337 336 331 330 330 332 331 332 331 330 330 332 332 333 333 332 331 330 330
305 308 307 309 311 311 312 314 313 313 313 313 315 322 326 329 338 339 339 341 341 341 341 341 342 346 339 339 340 339 338 335 333 332 330 328 327 326 326 328 329 330 331 332 332 331 330 330 328
310 309 308 308 309 310 311 313 313 313 313 312 313 318 330 333 337 336 335 336 339 340 341 341 341 342 339 339 339 339 337 332 332 329 327 327 326 326 326 327 329 329 329 332 331 328 327 327 326
313 312 309 311 310 311 311 310 310 312 311 312 313 313 330 331 334 334 335 335 336 338 339 341 341 340 338 338 340 337 334 332 328 327 328 327 327 326 327 326 328 328 328 332 330 328 327 326 325
314 313 313 312 312 313 312 311 312 310 312 313 311 311 324 331 331 332 332 332 334 336 338 339 340 338 336 336 339 337 334 332 330 328 328 328 326 325 327 328 327 327 328 330 324 323 324 325 324
312 314 313 313 312 311 311 312 313 312 310 310 309 310 317 328 330 331 332 330 333 335 336 336 337 337 336 336 336 336 332 331 330 329 328 327 325 326 327 327 327 327 329 329 321 321 323 324 323
308 309 309 310 311 311 313 314 312 313 310 310 309 308 312 323 328 330 328 329 331 332 335 335 334 335 333 333 333 333 332 331 328 328 328 327 326 327 327 329 328 327 328 327 321 321 322 323 321
311 312 312 312 311 311 311 313 312 312 310 310 309 308 307 318 326 327 329 328 329 330 332 334 334 335 335 330 329 330 330 330 327 327 326 327 328 329 328 329 328 328 328 325 320 321 322 322 320
312 312 314 312 312 312 311 315 313 311 310 311 308 307 307 312 324 327 328 327 327 329 331 332 333 331 330 327 327 328 330 328 327 327 325 327 328 328 328 328 328 328 328 323 319 321 321 321 320
309 310 312 313 313 313 311 314 313 312 310 309 308 307 307 307 316 324 326 326 327 329 331 331 330 330 329 328 328 328 330 326 327 326 325 327 328 327 327 327 325 327 327 324 319 319 320 319 319
308 312 313 314 312 312 312 313 313 312 312 313 311 309 308 306 308 314 323 325 326 329 330 329 328 328 328 328 329 329 329 328 325 325 325 325 326 327 327 326 324 326 325 323 319 318 319 320 319
310 311 310 309 310 312 311 312 313 312 311 310 310 310 310 309 308 314 323 325 326 327 328 327 325 324 326 326 328 329 328 327 326 326 327 326 325 326 326 324 325 324 323 321 318 318 318 319 319
307 307 308 309 310 311 312 313 313 312 312 313 311 311 311 310 320 322 323 324 325 323 324 324 323 322 323 324 324 326 328 327 327 326 327 326 324 326 324 323 323 322 319 319 317 317 317 318 319
309 311 313 314 314 311 312 314 312 312 313 313 312 312 312 311 316 325 325 324 324 322 322 323 322 321 322 323 324 324 325 326 326 328 326 325 324 324 321 323 322 318 317 318 316 317 317 318 319
316 315 316 315 315 315 315 319 313 314 315 315 314 313 313 311 317 325 325 324 325 323 322 322 323 321 321 322 324 324 325 325 324 326 325 324 325 322 320 321 319 316 314 315 316 317 316 319 317
316 316 317 316 316 316 315 317 314 314 315 315 314 313 313 311 319 325 325 324 325 323 322 321 323 321 322 323 323 324 324 324 325 325 325 324 323 321 317 317 315 314 313 314 315 317 316 318 318
314 315 315 315 317 318 314 316 315 315 315 315 315 315 315 312 321 324 323 325 324 322 320 321 321 321 321 322 322 324 324 324 324 323 323 323 322 321 319 316 313 313 314 316 314 316 318 316 318
314 316 315 316 321 319 314 316 316 315 315 315 316 316 315 313 321 324 324 325 323 321 320 320 321 320 321 322 321 322 323 323 323 323 322 323 323 322 321 317 315 315 316 315 315 317 318 319 318
315 316 317 321 321 321 319 316 316 323 322 321 320 317 315 312 321 324 324 324 323 322 320 320 319 320 321 321 321 321 321 322 323 322 322 322 322 322 322 321 319 316 318 317 318 319 320 320 320
317 319 317 321 319 323 321 319 322 324 323 322 321 320 320 316 319 324 323 324 322 321 321 320 320 321 320 322 320 320 320 319 320 322 322 322 323 323 323 322 321 321 319 315 320 320 318 319 320
315 318 324 321 320 323 321 322 327 325 323 322 322 321 323 320 317 323 323 323 322 321 321 320 321 322 322 322 322 320 320 319 319 319 321 322 322 322 322 322 322 320 320 320 316 320 321 320 321
318 319 320 320 323 324 322 323 326 325 322 322 322 323 323 319 323 324 322 321 322 321 320 320 321 322 322 322 322 321 320 321 320 320 320 320 320 321 321 321 321 321 321 321 321 321 320 321 321
316 316 316 323 322 322 320 320 325 325 320 321 321 322 322 323 324 323 321 321 320 320 319 319 321 322 322 322 323 322 322 321 321 320 321 320 320 320 320 320 320 321 321 321 321 321 321 321 320
Wind_Speed
9 5 3 4 4 5 3 6 3 5 6 3 5 5 8 4 5 4 3 22 15 17 18 19 20 22 22 24 25 24 25 32 33 34 35 35 35 35 35 33 31 31 28 27 28 27 26 26 29
10 7 3 3 4 1 5 4 6 5 7 6 1 2 1 4 2 2 7 23 16 19 20 20 22 23 25 26 27 26 25 30 33 34 36 37 37 36 35 32 30 29 29 29 30 28 27 30 30
10 3 4 4 4 6 6 7 6 3 8 3 2 2 1 3 2 4 8 21 19 20 20 20 22 24 25 27 28 27 27 27 30 31 33 34 34 34 33 30 30 28 29 29 28 29 29 33 33
6 4 4 4 7 7 7 2 1 9 6 2 1 4 3 3 2 7 13 23 21 21 19 19 21 24 24 24 26 27 26 26 28 31 32 33 30 32 31 28 27 25 26 28 29 30 32 33 34
5 3 3 2 7 6 5 5 4 8 4 8 3 5 4 3 4 11 17 24 23 22 20 20 20 24 23 23 24 24 26 27 28 31 30 31 25 22 25 24 23 24 25 26 28 31 33 35 35
3 3 2 5 6 6 5 6 2 4 3 10 2 5 5 3 9 14 19 23 22 23 22 20 19 22 23 22 24 24 24 26 28 27 27 25 25 20 18 20 22 23 23 25 29 31 32 34 34
6 4 5 6 3 7 6 7 5 3 4 5 2 5 4 3 11 18 21 19 20 20 21 20 21 22 23 23 24 25 26 30 32 30 28 25 24 25 24 26 22 25 26 28 30 33 34 34 33
5 4 5 5 5 11 4 2 5 3 6 3 4 2 6 5 14 21 18 18 18 18 20 21 22 23 23 23 26 27 29 32 32 29 31 29 24 21 24 24 25 28 28 30 32 33 34 32 31
4 1 4 8 8 9 3 3 2 2 5 3 4 2 6 4 14 19 16 16 17 19 21 22 23 24 23 24 27 28 28 31 33 36 36 33 29 23 22 22 23 24 28 32 32 33 32 30 28
4 5 9 7 8 7 1 1 3 3 3 7 6 5 3 11 20 13 15 17 22 22 22 23 25 26 25 26 28 31 33 37 38 37 33 28 25 35 31 25 24 26 29 33 34 32 29 28 28
5 7 6 5 7 4 8 6 5 4 7 10 8 7 3 7 12 14 16 21 28 27 25 26 27 28 27 26 28 32 35 39 38 39 35 33 36 30 31 33 30 27 29 34 34 31 28 29 30
5 6 10 3 6 4 8 4 9 8 9 14 9 7 3 9 10 14 18 24 27 29 27 27 28 28 28 28 27 29 31 38 38 37 36 37 33 31 35 34 31 30 35 37 34 32 30 30 30
6 4 4 6 7 7 8 15 20 7 11 15 9 6 10 9 14 23 22 15 26 30 30 29 28 29 29 28 28 27 29 34 36 40 41 35 36 35 35 32 35 34 38 41 36 34 33 31 29
2 3 8 8 13 8 13 20 4 5 10 10 8 10 12 12 17 18 16 25 30 31 33 30 29 29 28 29 28 28 29 30 30 33 33 34 35 31 35 32 33 39 41 40 36 35 37 33 31
5 7 7 6 6 8 6 17 15 10 10 11 13 11 11 13 13 17 32 30 36 34 31 31 30 28 27 28 27 28 28 29 29 30 33 31 33 37 34 33 35 38 41 41 34 31 34 34 31
4 3 2 4 4 7 9 32 7 8 10 14 10 10 8 11 13 26 28 29 29 30 30 29 28 27 24 25 24 26 27 28 28 30 35 32 36 40 38 34 35 38 42 41 34 34 35 34 31
2 6 4 6 4 5 8 18 2 4 5 8 9 9 8 9 8 21 32 31 28 29 30 29 26 24 22 21 23 25 25 29 27 30 33 38 35 36 39 36 35 40 43 43 40 36 34 32 29
6 5 3 3 4 6 10 22 9 8 9 10 10 9 8 9 14 21 22 26 29 29 30 27 24 22 21 20 21 24 25 28 32 29 31 39 40 37 36 34 36 41 41 40 41 38 31 32 32
3 4 7 4 5 9 17 25 24 10 8 10 10 9 10 11 12 15 21 26 27 30 30 28 23 20 21 23 21 20 23 27 29 32 31 37 44 34 40 37 38 41 41 40 42 39 32 28 31
5 7 8 7 5 6 10 21 20 10 14 14 12 12 11 6 6 6 16 23 29 27 27 26 21 21 21 21 20 16 16 22 27 30 30 33 36 43 39 37 39 41 36 38 38 38 30 24 34
5 5 4 8 8 9 9 22 15 14 14 13 10 12 8 11 11 9 13 21 25 25 28 25 23 21 23 19 19 12 18 10 21 26 33 34 35 39 33 37 38 38 38 40 38 38 34 25 32
3 5 4 7 7 2 4 9 17 8 12 10 9 8 12 11 8 10 14 16 25 25 27 25 22 20 21 21 20 18 10 9 4 16 27 33 36 34 31 33 36 36 32 32 37 36 32 33 28
5 2 3 4 4 6 7 4 7 6 14 12 11 11 11 10 11 14 16 15 21 23 25 23 23 21 20 20 18 16 14 12 15 23 28 32 33 34 29 29 30 33 34 34 39 36 33 34 34
3 1 4 4 2 5 10 11 4 4 6 6 7 8 9 7 9 9 11 20 19 20 22 24 24 22 21 20 18 18 16 16 18 20 24 28 30 32 30 29 28 26 30 30 34 37 37 32 33
2 2 2 3 3 5 6 7 12 19 20 14 11 9 7 6 9 12 15 16 21 24 24 24 25 22 23 22 19 16 17 17 18 22 20 26 28 28 29 30 30 28 25 30 32 37 38 34 33
4 4 2 4 3 4 5 5 5 7 13 14 15 13 4 8 11 12 15 16 21 25 25 24 25 23 24 23 21 18 14 16 19 21 23 22 27 30 33 34 32 31 31 27 31 34 37 31 31
3 4 2 4 3 5 4 7 4 14 17 19 20 21 17 11 9 13 13 15 22 26 27 24 25 23 24 22 21 19 18 16 16 19 21 25 27 28 33 34 33 31 32 36 31 33 38 33 31
3 3 1 3 3 4 4 4 3 10 16 19 24 23 22 18 9 12 14 16 22 23 24 21 24 25 21 22 22 18 18 17 16 17 19 20 23 24 25 28 30 31 32 36 41 37 37 38 37
2 1 2 1 3 2 3 4 4 2 5 15 20 21 22 11 7 9 9 14 22 21 20 19 22 23 22 19 21 17 17 17 18 20 20 19 19 20 22 24 29 32 32 32 37 35 32 35 33
1 4 4 3 2 4 2 5 3 6 3 10 18 23 22 5 6 9 9 9 16 18 17 18 20 22 21 21 19 19 19 17 18 18 19 19 21 21 23 23 26 29 32 28 28 30 30 33 34
Wind_Direction
190 176 161 52 59 65 267 257 260 289 301 220 133 156 192 162 163 210 181 166 161 172 176 185 184 180 182 176 173 171 170 175 174 172 170 169 169 166 164 163 156 151 144 144 145 144 144 145 146
163 153 76 85 98 79 261 245 225 214 254 326 145 83 102 235 176 205 147 177 178 174 178 184 185 182 184 181 176 172 170 174 177 175 173 173 171 170 167 167 157 153 151 150 145 145 150 148 149
150 140 94 113 134 204 214 217 210 269 270 219 5 17 208 239 189 203 185 175 183 179 179 183 186 185 183 186 177 173 174 173 176 174 173 172 173 170 171 167 159 156 155 152 151 151 156 154 151
151 28 37 116 218 251 205 238 250 335 345 144 169 247 285 223 205 199 179 178 179 180 182 184 188 186 184 185 182 177 175 170 164 170 172 173 174 171 171 168 163 164 160 154 157 157 160 158 155
68 61 85 170 247 252 250 283 298 305 285 284 176 235 218 292 227 177 175 179 181 182 186 186 189 189 184 178 183 180 178 177 172 171 175 173 173 180 170 170 169 166 165 163 163 160 164 161 157
57 98 115 208 240 268 262 199 204 242 250 300 228 160 235 238 189 173 179 183 186 186 189 187 187 192 186 183 186 183 180 177 175 172 171 178 166 177 185 175 171 172 164 170 169 164 165 162 158
131 112 210 185 222 281 242 186 191 197 273 292 225 189 250 255 189 172 176 184 190 193 193 191 185 192 190 189 186 188 183 176 173 171 169 167 168 164 194 176 176 178 173 173 169 165 165 163 160
119 126 174 199 170 254 240 186 150 173 273 271 176 298 304 323 189 171 177 183 193 198 199 194 190 187 193 194 196 192 192 184 180 178 168 166 159 167 183 168 187 177 176 174 167 167 167 163 161
131 156 207 187 183 242 185 155 237 223 264 330 249 226 243 320 181 166 171 183 191 201 201 200 193 189 193 197 201 200 197 186 180 174 171 163 167 187 187 181 178 183 178 175 169 166 166 162 163
159 204 207 207 215 237 230 182 265 283 296 282 280 234 275 173 174 197 177 185 196 197 197 200 199 193 196 200 201 204 194 180 178 175 176 185 181 191 190 183 188 191 185 175 168 163 163 166 166
211 237 197 225 237 210 271 255 229 227 286 237 264 273 186 189 195 206 206 195 196 196 195 196 198 200 199 199 196 190 190 188 185 183 182 184 189 194 199 193 191 185 194 174 167 169 174 176 171
244 230 235 193 214 193 238 287 244 205 236 264 237 259 227 194 204 222 216 208 197 198 197 197 200 205 204 206 197 197 187 192 195 197 200 201 204 203 196 189 187 187 190 172 169 170 176 178 174
224 258 229 224 249 247 265 255 262 242 246 265 272 246 245 220 219 222 238 234 205 204 201 201 202 208 209 209 205 199 195 198 202 202 206 212 207 201 195 187 188 188 182 176 172 172 174 178 178
250 272 265 250 247 240 249 262 221 243 240 258 265 243 237 222 222 216 220 225 212 209 205 203 205 209 211 210 212 210 213 211 203 207 204 203 203 197 186 183 181 187 184 178 178 175 177 181 180
267 292 280 220 212 239 251 265 252 239 249 248 258 247 245 228 226 211 221 222 216 212 204 202 206 208 208 209 213 214 215 212 205 205 204 194 192 189 180 175 180 186 182 179 181 179 180 179 181
315 283 308 301 185 248 167 268 267 259 227 255 254 272 255 247 219 225 228 226 220 211 204 201 203 208 204 205 209 214 215 211 199 202 199 196 195 189 186 179 184 184 184 180 178 174 176 178 182
314 254 248 306 241 263 190 281 194 317 249 263 261 264 267 266 245 234 230 223 212 208 197 196 201 204 202 203 206 210 215 213 202 199 201 199 193 193 188 189 185 185 185 182 179 176 177 179 183
209 248 242 245 318 338 298 283 281 264 271 268 271 274 271 256 250 239 226 210 201 198 195 195 200 203 203 201 207 209 216 215 214 210 208 203 197 198 190 185 186 186 185 181 182 179 179 180 183
306 272 260 271 286 283 277 281 281 272 261 267 264 268 266 256 259 239 194 183 184 192 188 193 194 199 199 198 198 197 198 205 207 208 206 203 204 202 182 185 191 186 185 182 183 179 179 177 175
240 267 281 283 244 294 269 276 283 265 257 256 249 256 253 253 250 190 165 165 174 174 176 186 188 200 204 202 201 203 202 209 207 201 196 193 180 180 179 186 189 186 181 183 182 181 172 169 177
220 227 249 272 293 252 280 283 270 254 248 245 234 241 251 245 230 191 177 173 166 171 174 179 190 193 196 200 192 199 207 191 201 203 175 177 180 174 175 188 187 184 186 185 182 185 177 166 179
229 220 253 300 315 258 71 293 296 256 254 252 244 246 252 252 216 182 178 175 180 173 171 178 181 182 188 194 194 199 198 181 186 155 157 173 184 179 181 188 188 185 185 184 188 187 183 175 179
221 35 275 271 255 302 190 240 299 352 287 252 238 233 240 239 199 190 187 175 176 166 171 177 183 179 188 186 198 190 174 177 182 161 155 163 174 179 178 182 183 187 193 193 194 192 193 190 183
125 257 267 201 250 260 192 195 319 255 279 298 243 234 243 231 192 177 154 157 167 172 173 176 177 180 183 188 192 188 171 170 160 150 155 158 164 174 182 181 183 194 199 199 199 202 204 198 199
126 99 345 11 194 249 291 202 249 279 280 283 297 286 265 252 180 165 159 169 168 173 179 176 175 180 182 184 183 190 193 183 167 167 159 159 163 169 187 191 188 196 214 213 207 209 210 214 213
164 171 180 226 222 291 289 238 261 16 16 8 351 336 314 227 205 180 181 173 169 175 177 175 176 177 183 187 187 190 187 186 181 173 175 168 168 175 185 191 197 201 208 211 224 215 217 219 223
155 188 169 309 249 273 241 278 261 4 7 4 356 342 332 302 201 190 177 176 173 175 178 178 175 173 178 179 189 189 187 187 191 189 184 185 185 184 191 193 195 200 207 211 227 228 223 223 225
129 87 149 179 253 248 258 261 302 5 8 4 360 343 327 310 237 180 171 171 173 174 170 177 177 173 172 178 191 201 200 185 181 188 192 194 198 198 199 205 211 214 215 214 219 225 221 220 225
135 192 208 298 240 264 297 264 173 246 39 16 356 343 332 291 172 159 162 162 160 161 163 170 168 168 173 178 186 196 208 212 203 199 201 205 209 210 210 213 216 211 216 214 218 223 223 220 224
126 180 204 245 239 231 260 268 15 282 295 47 6 353 346 4 112 127 124 138 147 149 155 170 165 169 182 189 190 193 203 213 215 215 214 210 212 214 218 218 220 221 223 219 221 225 228 233 234